Flag for Canada Weather past 2 weeks in Cape Dorset, Nunavut Territory, Canada

Now
-18 °F

Partly sunny.


Feels Like: -38 °F
Forecast: -16 / -4 °F
Wind: 9 mph from East

Location: Coral Harbour

Current Time: Mar 1, 2015 at 2:30:39 PM

Latest Report: Mar 1, 2015 at 1:00 PM


Visibility: 12 mi

Pressure: 29.34 "Hg

Humidity: 69%

Dew point: -26 °F

Location of Cape DorsetLocation

Historic Weather in Cape Dorset — Graph

°F

Cape Dorset temperature yesterday

Maximum temperature yesterday: -8 °F (at 2:00 PM)
Minimum temperature yesterday: -31 °F (at 1:00 AM)
Average temperature yesterday: -15 °F

Past Weeks' High & Low Weather Summary

 TemperatureHumidityPressure
High-8 °F (Feb 28, 2:00 PM)77% (Feb 28, 4:00 PM)30.27 "Hg (Feb 28, 4:00 PM)
Low-38 °F (Feb 27, 6:00 AM)54% (Feb 22, 11:00 AM)29.25 "Hg (Mar 1, 12:00 AM)
Average-22 °F65%29.82 "Hg
* Reported Feb 14 1:00 PM — Mar 1 1:00 PM, Cape Dorset, Weather by CustomWeather, © 2015

Note: Actual official high and low records may vary slightly from our data, if they occured in-between our weather recording intervals... More about our weather records

Advertising

Cape Dorset weather history for previous 24 hours

 ConditionsComfort  
Time TempWeatherWind HumidityBarometerVisibility
1:00 PM
Sun, Mar 1
-18 °FPartly sunny.9 mph69%29.34 "Hg12 mi
12:00 PM-18 °FPartly sunny.13 mph69%29.32 "Hg12 mi
11:00 AM-20 °FBroken clouds.12 mph75%29.31 "Hg12 mi
10:00 AM-20 °FScattered clouds.14 mph75%29.30 "Hg12 mi
9:00 AM-22 °FPartly sunny.14 mph68%29.30 "Hg12 mi
8:00 AM-22 °FPassing clouds.13 mph68%29.29 "Hg12 mi
7:00 AM-20 °FPassing clouds.14 mph68%29.28 "Hg12 mi
6:00 AM-18 °FSnow flurries. Passing clouds.12 mph69%29.27 "Hg6 mi
5:00 AM-18 °FSnow flurries. Passing clouds.10 mph75%29.27 "Hg6 mi
4:00 AM-17 °FSnow flurries. Passing clouds.3 mph69%29.26 "Hg6 mi
3:00 AM-13 °FSnow flurries. Passing clouds.3 mph69%29.26 "Hg6 mi
2:00 AM-11 °FSnow flurries. Passing clouds.5 mph70%29.25 "Hg6 mi
1:00 AM-9 °FSnow flurries. Passing clouds.7 mph70%29.25 "Hg6 mi
12:00 AM-9 °FSnow flurries. Passing clouds.13 mph70%29.25 "Hg6 mi
11:00 PM
Sat, Feb 28
-9 °FSnow flurries. Passing clouds.13 mph70%29.26 "Hg6 mi
10:00 PM-11 °FSnow flurries. Passing clouds.12 mph76%29.28 "Hg6 mi
9:00 PM-8 °FSnow flurries. Mostly cloudy.9 mph77%29.30 "Hg2 mi
8:00 PM-8 °FSnow flurries. Mostly cloudy.10 mph77%29.33 "Hg4 mi
7:00 PM-8 °FSnow flurries. Mostly cloudy.12 mph77%29.36 "Hg4 mi
6:00 PM-8 °FSnow flurries. Mostly cloudy.10 mph70%29.38 "Hg2 mi
5:00 PM-8 °FSnow flurries. Overcast.10 mph70%29.38 "Hg1 mi
4:00 PM-9 °FLight snow. More clouds than sun.13 mph77%29.39 "Hg2 mi
3:00 PM-8 °FLight snow. Mostly cloudy.15 mph70%29.40 "Hg2 mi
2:00 PM-8 °FLight snow. Mostly cloudy.13 mph70%29.42 "Hg2 mi
Weather by CustomWeather, © 2015

See weather overviewHow to use our weather pages